Starlink 31834

operational
NORAD ID: 59721 Int'l Des: 2024-088 Owner: SPXS Country: US Constellation: starlink
LEOCIRCULAR

Starlink 31834について

説明を読み込み中...

リアルタイム位置

3D地球を読み込み中...

次回通過

高度履歴

Altitude vs Time

uPlot chart will show altitude changes over time

軌道要素

1 59721U 24088P 26034.42648836 -.00000049 00000-0 10491-4 0 9995
2 59721 53.1608 299.2473 0001347 78.1228 281.9924 15.30195318 98613
Epoch: Feb 3, 2026 • Age: 23 hours

現在のステータス

高度 494.7 km
速度 7.62 km/s
衛星直下点 -53.31°S, 70.37°W
打ち上げ日 May 10, 2024
運用期間 1.7 years
タイプ internet

技術仕様

分類 Payload
質量 730.00 kg
乾燥質量 700.00 kg
総質量 730.00 kg
長さ 0.30 m
直径 4.10 m
スパン 29.00 m
形状 Box + pan
製造者 SPXS
バスタイプ Starlink V2M
フェーズステータス In Orbit
所有者/国 SPXS/US

大規模コンステレーション

Loading constellations...